Change the Weather History Date:

Wednesday, November 2, 2011

  Actual Average Record
Temperature  
Mean Temperature 52 °F 49 °F  
Max Temperature 64 °F 59 °F 79 °F (1938)
Min Temperature 40 °F 39 °F 13 °F (1951)
Degree Days  
Heating Degree Days 13 16  
Month to date heating degree days 21 32  
Since 1 July heating degree days 456 426  
Cooling Degree Days 0 0  
Month to date cooling degree days 0 0  
Year to date cooling degree days 1247 1206  
Growing Degree Days 2 (Base 50)    
Moisture  
Dew Point 41 °F    
Average Humidity 70    
Maximum Humidity 96    
Minimum Humidity 43    
Precipitation  
Precipitation 0.49 in 0.09 in 1.39 in (1961)
Month to date precipitation 0.49 0.18  
Year to date precipitation 27.59 34.07  
Sea Level Pressure  
Sea Level Pressure 29.99 in    
Wind  
Wind Speed 14 mph (West)    
Max Wind Speed 29 mph    
Max Gust Speed 35 mph    
Visibility 8 miles    
Events Rain    
T = Trace of Precipitation, MM = Missing Value Source: NWS Daily Summary

Daily Weather History Graph

Daily Weather History Graph

Search for Another Location

Airport or City:

Trip Planner

Search our weather history database for the weather conditions in past years. The results will help you decide how hot, cold, wet, or windy it might be!

Date:

Astronomy

Nov. 02, 2011 Rise Set
Actual Time 7:35 AM CDT 5:59 PM CDT
Civil Twilight 7:07 AM CDT 6:28 PM CDT
Nautical Twilight 6:34 AM CDT 7:00 PM CDT
Astronomical Twilight 6:02 AM CDT 7:32 PM CDT
Moon 1:55 PM CDT (11/2) No Moon Set
Length of Visible Light 11h 20m
Length of Day
10h 23m
Waxing Crescent, 50% of the Moon is Illuminated
Nov 2
Waxing Crescent
Nov 10
Full
Nov 18
Last Quarter
Nov 25
New
Dec 2
First Quarter

Hourly Weather History & Observations

Time (CDT) Temp. Windchill Dew Point Humidity Pressure Visibility Wind Dir Wind Speed Gust Speed Precip Events Conditions
12:53 AM 57.9 °F - 36.0 °F 44% 29.99 in 10.0 mi South 13.8 mph - N/A   Clear
1:53 AM 57.9 °F - 36.0 °F 44% 29.99 in 10.0 mi South 12.7 mph - N/A   Clear
2:53 AM 57.9 °F - 36.0 °F 44% 29.99 in 10.0 mi South 13.8 mph - N/A   Overcast
3:53 AM 57.0 °F - 37.0 °F 47% 29.99 in 10.0 mi South 11.5 mph - N/A   Overcast
4:53 AM 57.0 °F - 37.0 °F 47% 29.99 in 10.0 mi South 11.5 mph - N/A   Overcast
5:53 AM 57.9 °F - 37.0 °F 46% 30.00 in 10.0 mi SSW 12.7 mph - N/A   Mostly Cloudy
6:53 AM 57.9 °F - 37.9 °F 47% 29.99 in 10.0 mi SSW 12.7 mph - N/A   Mostly Cloudy
7:53 AM 57.9 °F - 37.9 °F 47% 30.01 in 10.0 mi SSW 15.0 mph 21.9 mph N/A   Mostly Cloudy
8:53 AM 57.9 °F - 39.0 °F 49% 30.03 in 10.0 mi SSW 15.0 mph - N/A   Overcast
9:53 AM 59.0 °F - 39.0 °F 48% 30.03 in 10.0 mi SSW 12.7 mph - N/A   Mostly Cloudy
10:53 AM 61.0 °F - 39.0 °F 44% 30.01 in 10.0 mi SSW 12.7 mph - N/A   Partly Cloudy
11:53 AM 62.1 °F - 39.9 °F 44% 29.99 in 10.0 mi SSW 8.1 mph - N/A   Scattered Clouds
12:53 PM 62.6 °F - 39.2 °F 42% 29.96 in 8.0 mi West 8.1 mph - N/A   Overcast
1:53 PM 62.1 °F - 41.0 °F 46% 29.95 in 10.0 mi WSW 5.8 mph - N/A   Overcast
2:53 PM 62.1 °F - 42.1 °F 48% 29.94 in 10.0 mi SW 6.9 mph - N/A   Overcast
3:53 PM 53.1 °F - 46.9 °F 80% 29.98 in 4.0 mi NW 13.8 mph 18.4 mph 0.01 in Rain Light Rain
4:53 PM 50.0 °F - 46.9 °F 89% 29.97 in 8.0 mi North 12.7 mph - 0.00 in   Overcast
5:53 PM 50.0 °F - 46.9 °F 89% 29.98 in 7.0 mi North 8.1 mph - N/A   Overcast
6:15 PM 50.0 °F - 46.4 °F 87% 29.98 in 7.0 mi North 11.5 mph - N/A   Overcast
6:36 PM 48.2 °F - 46.4 °F 93% 29.99 in 5.0 mi North 13.8 mph 17.3 mph 0.00 in Rain Light Rain
6:53 PM 48.9 °F - 46.9 °F 93% 29.99 in 5.0 mi North 13.8 mph - 0.00 in   Overcast
7:53 PM 48.9 °F - 46.0 °F 90% 29.97 in 10.0 mi North 16.1 mph 26.5 mph N/A   Overcast
8:53 PM 46.4 °F 38.1 °F 42.8 °F 87% 29.95 in 9.0 mi NNE 24.2 mph 32.2 mph N/A Rain Light Rain
9:53 PM 43.0 °F 34.8 °F 41.0 °F 93% 30.01 in 10.0 mi North 18.4 mph - 0.02 in Rain Light Rain
10:32 PM 41.0 °F 31.6 °F 37.4 °F 87% 30.04 in 10.0 mi North 20.7 mph 28.8 mph 0.03 in Rain Light Rain
10:53 PM 41.0 °F 31.1 °F 37.9 °F 89% 30.05 in 4.0 mi NNE 23.0 mph 31.1 mph 0.11 in Rain Heavy Rain
11:04 PM 41.0 °F 32.2 °F 37.4 °F 87% 30.05 in 4.0 mi North 18.4 mph - 0.05 in Rain Heavy Rain
11:53 PM 39.9 °F 30.8 °F 37.9 °F 93% 30.01 in 7.0 mi NNE 18.4 mph 27.6 mph 0.21 in Rain Rain